Home > Weather > Freiberg > Past weeks

Flag for Germany Past Weather in Freiberg, Saxony, Germany — Yesterday and Last 2 Weeks

Now
55 °F

Clear.


Feels Like: 55 °F
Forecast: 53 / 74 °F
Wind: 2 mph from South

Location: Dresden-Klotzsche

Current Time: May 27, 2016 at 2:19:59 AM

Latest Report: May 27, 2016 at 1:50 AM


Visibility: 10 mi

Pressure: 30.04 "Hg

Humidity: 82%

Dew Point: 50 °F

Location of FreibergLocation

Past Weather in Freiberg — Graph

°F

Freiberg Temperature Yesterday

Maximum temperature yesterday: 68 °F (at 4:20 PM)
Minimum temperature yesterday: 52 °F (at 3:50 AM)
Average temperature yesterday: 60 °F

High & Low Weather Summary for the Past Weeks

 TemperatureHumidityPressure
High82 °F (May 22, 3:50 PM)100% (May 13, 2:50 AM)30.09 "Hg (May 13, 2:50 AM)
Low39 °F (May 15, 4:50 AM)23% (May 22, 3:50 PM)29.45 "Hg (May 13, 3:20 PM)
Average57 °F68%29.87 "Hg
* Reported May 12 1:20 AM — May 27 1:20 AM, Freiberg, Weather by CustomWeather, © 2016

Note: Actual official high and low records may vary slightly from our data, if they occured in-between our weather recording intervals... More about our weather records

Advertising

Freiberg Weather History for the Previous 24 Hours

Scroll right to see more
 ConditionsComfort  
Time TempWeatherWind HumidityBarometerVisibility
1:20 AM
Fri, May 27
54 °FClear.1 mph82%30.04 "Hg10 mi
12:50 AM55 °FClear.1 mph77%30.04 "Hg10 mi
12:20 AM57 °FClear.3 mph72%30.04 "Hg10 mi
11:50 PM
Thu, May 26
57 °FClear.2 mph72%30.04 "Hg10 mi
11:20 PM59 °FClear.No wind68%30.04 "Hg10 mi
10:50 PM59 °FClear.No wind68%30.04 "Hg10 mi
10:20 PM59 °FClear.1 mph68%30.04 "Hg10 mi
9:50 PM59 °FSunny.2 mph63%30.04 "Hg10 mi
9:20 PM61 °FSunny.2 mph63%30.04 "Hg10 mi
8:50 PM63 °FSunny.2 mph59%30.01 "Hg10 mi
8:20 PM63 °FSunny.2 mph64%30.01 "Hg10 mi
7:50 PM64 °FSunny.5 mph60%30.01 "Hg10 mi
7:20 PM64 °FSunny.6 mph56%30.01 "Hg10 mi
6:50 PM66 °FSunny.6 mph52%30.01 "Hg10 mi
6:20 PM66 °FPassing clouds.7 mph52%30.01 "HgN/A
5:50 PM66 °FPassing clouds.7 mph56%30.01 "HgN/A
5:20 PM66 °FPassing clouds.8 mph52%30.01 "HgN/A
4:50 PM68 °FPassing clouds.7 mph49%30.01 "HgN/A
4:20 PM68 °FPassing clouds.9 mph49%30.01 "HgN/A
3:50 PM66 °FPassing clouds.9 mph52%30.01 "HgN/A
3:20 PM66 °FScattered clouds.8 mph56%30.04 "HgN/A
2:50 PM66 °FScattered clouds.6 mph56%30.04 "HgN/A
2:20 PM66 °FScattered clouds.9 mph56%30.04 "HgN/A
1:50 PM64 °FScattered clouds.9 mph60%30.04 "HgN/A
1:20 PM64 °FBroken clouds.7 mph60%30.04 "HgN/A
12:50 PM64 °FBroken clouds.7 mph60%30.04 "HgN/A
12:20 PM63 °FBroken clouds.7 mph68%30.04 "HgN/A
11:50 AM63 °FPartly sunny.6 mph68%30.04 "HgN/A
11:20 AM61 °FPartly sunny.6 mph72%30.04 "HgN/A
10:50 AM61 °FPartly sunny.3 mph72%30.04 "HgN/A
10:20 AM59 °FBroken clouds.5 mph77%30.04 "HgN/A
9:50 AM59 °FBroken clouds.6 mph77%30.04 "HgN/A
9:20 AM57 °FPartly sunny.6 mph82%30.04 "Hg6 mi
8:50 AM57 °FPartly sunny.2 mph82%30.04 "Hg6 mi
8:20 AM57 °FPartly sunny.2 mph82%30.01 "Hg5 mi
7:50 AM55 °FBroken clouds.3 mph88%30.01 "Hg4 mi
7:20 AM55 °FPartly sunny.2 mph88%30.01 "Hg4 mi
6:50 AM54 °FFog.2 mph94%30.01 "Hg3 mi
6:20 AM54 °FFog.1 mph94%30.01 "Hg2 mi
5:50 AM54 °FFog.2 mph94%30.01 "Hg3 mi
5:20 AM52 °FFog.2 mph100%30.01 "Hg3 mi
4:50 AM52 °FFog.3 mph100%30.01 "Hg3 mi
4:20 AM52 °FPassing clouds.3 mph100%30.01 "Hg6 mi
3:50 AM52 °FPartly cloudy.3 mph100%29.98 "HgN/A
3:20 AM54 °FPassing clouds.2 mph94%29.98 "HgN/A
2:50 AM54 °FPassing clouds.1 mph94%29.98 "HgN/A
2:20 AM54 °FPassing clouds.3 mph94%30.01 "HgN/A
Weather by CustomWeather, © 2016

See weather overviewHow to use our weather pages